THORAD DELTA 1 DEB, 14880

Orbit data source: Space-Track

THORAD DELTA 1 DEB, 14880 is space debris in SSO originally from a launch on Fri, 15 Nov 1974 UTC launched from the Air Force Western Test Range (AFWTR). Debris objects in space refer to the collection of defunct objects orbiting the Earth. Examples of debris include non-operational satellites, rocket bodies, and fragments generated from explosions, collisions, or faulty payload assembly.

Loading next visibility...
Identifier
14880, 1974-089ET
Orbit
SSO
Country
Flag of USUS
Related business
Manufacturer
Unknown
Mission
Spacecraft
Bus & Motor
Unknown
Mass
Unknown
Launch date (UTC)
1974-11-15 (51 years ago)
Launch vehicle
Unknown
Launch site
Air Force Western Test Range (AFWTR)
Object type
Payload
Rocket body
Debris
Shape & HBR
Unknown shape, 0.1 m
Radar Cross Section
Small (<0.1 m²)

Expand to show TLE details & history
Last TLE update: 16 hours ago

TLE from 16 hours ago
0 THORAD DELTA 1 DEB
1 14880U 74089ET  26066.33631655 -.00000017  00000-0  18691-3 0  9998
2 14880 101.2171  10.0204 0152619 215.4822 301.3774 12.30536415996864
Epoch: 2026-03-07T08:04Z
TLE epoch observation values (Epoch: 2026-03-07T08:04:17.749Z)
Latitude
24.17169°
Longitude
-91.03151°
Altitude
1,487.974 km
Speed
7.149 km/s
True Right ascension
13h 00m 24s
True Declination
24° 03' 19"
Sunlit
Object was in full shadow at epoch
Visualization orbit readout
Latitude
Unknown
Longitude
Unknown
Altitude
Unknown
Speed
Unknown
Apparent Right ascension
Unknown
Apparent Declination
Unknown
Sunlit
N/A
Visualization observer readout
Local Sidereal Time
04:10:48
Azimuth
Unknown
Elevation
Unknown
Doppler factor
Unknown
Orbital elements
Apogee altitude
1,665.433 km
Perigee altitude
1,423.604 km
Semi-major axis
7,922.656 km
Eccentricity
0.01526
Inclination
101.2171°
RAAN
10.0204°
Arg. of periapsis
215.4822°
True anomaly
299.86948°
Mean anomaly
301.3774°
Eccentric anomaly
300.62492°
Mean motion
3.07778 °/min
Orbital period
116.97 mins
BSTAR
0.00018691
Loading maneuver chart data...
Computing Atmospheric mass density...

Documentation

Showing up to 5 results
|